EW1744 Weather Reports


Display with metric or nautical units.
time (UTC)temp
F
wind
direction
speed
MPH
gust
MPH
rain 1hr
in
rain 24hr
in
rain mn
in
humidity
%
barometer
mb
20260505025250 62 274 2.0 11.0 0.00 0.00 0.00 50 1009.1
20260505024750 62 104 3.0 11.0 0.00 0.00 0.00 50 1009.1
20260505024250 63 257 4.0 11.0 0.00 0.00 0.00 50 1009.0
20260505024009 63 260 4.0 11.0 0.00 0.00 0.00 50 1009.2
20260505023250 63 266 3.0 11.0 0.00 0.00 0.00 50 1009.1
20260505022750 63 97 3.0 9.0 0.00 0.00 0.00 49 1009.1
20260505022251 63 293 3.0 9.0 0.00 0.00 0.00 49 1009.1
20260505021751 63 259 3.0 8.0 0.00 0.00 0.00 49 1009.1
20260505021251 63 298 3.0 8.0 0.00 0.00 0.00 49 1009.0
20260505020751 64 278 3.0 8.0 0.00 0.00 0.00 49 1009.0
20260505020251 64 281 3.0 16.0 0.00 0.00 0.00 48 1008.9
20260505015752 64 264 4.0 16.0 0.00 0.00 0.00 48 1008.9
20260505015517 64 212 5.0 16.0 0.00 0.00 0.00 47 1008.8
20260505014751 64 296 4.0 16.0 0.00 0.00 0.00 47 1008.7
20260505014251 64 249 3.0 8.0 0.00 0.00 0.00 47 1008.6
20260505013747 64 276 3.0 10.0 0.00 0.00 0.00 47 1008.6
20260505013248 65 295 4.0 10.0 0.00 0.00 0.00 46 1008.4
20260505012749 65 269 4.0 10.0 0.00 0.00 0.00 46 1008.3
20260505012249 65 268 3.0 12.0 0.00 0.00 0.00 45 1008.3
20260505011750 65 279 3.0 12.0 0.00 0.00 0.00 45 1008.2
20260505011249 65 281 2.0 8.0 0.00 0.00 0.00 44 1008.1
20260505010749 64 269 1.0 7.0 0.00 0.00 0.00 44 1008.0
20260505010250 64 146 0.0 2.0 0.00 0.00 0.00 45 1007.9
20260505010013 64 266 0.0 1.0 0.00 0.00 0.00 45 1007.8
20260505005249 65 266 0.0 0.0 0.00 0.00 0.00 42 1007.5
20260505004746 65 266 0.0 0.0 0.00 0.00 0.00 41 1007.5
20260505004504 66 266 0.0 1.0 0.00 0.00 0.00 40 1007.4
20260505003745 66 266 0.0 1.0 0.00 0.00 0.00 39 1007.3
20260505003246 66 266 0.0 1.0 0.00 0.00 0.00 39 1007.1
20260505002746 67 237 0.0 1.0 0.00 0.00 0.00 38 1007.1
20260505002247 67 257 0.0 1.0 0.00 0.00 0.00 38 1007.0
20260505001747 67 257 0.0 3.0 0.00 0.00 0.00 38 1006.8
20260505001247 68 257 0.0 3.0 0.00 0.00 0.00 37 1006.7
20260505000747 68 256 0.0 3.0 0.00 0.00 0.00 37 1006.7
20260505000248 69 274 0.0 3.0 0.00 0.00 0.00 36 1006.6
20260504235747 69 189 1.0 3.0 0.00 0.00 0.00 36 1006.6
20260504235247 69 275 1.0 4.0 0.00 0.00 0.00 36 1006.5
20260504235219 69 255 1.0 4.0 0.00 0.00 0.00 35 1006.5
20260504234244 70 243 1.0 4.0 0.00 0.00 0.00 35 1006.4
20260504233743 70 300 1.0 4.0 0.00 0.00 0.00 35 1006.3
20260504233242 70 243 1.0 4.0 0.00 0.00 0.00 34 1006.3
20260504232742 70 291 1.0 4.0 0.00 0.00 0.00 34 1006.2
20260504232514 71 276 1.0 7.0 0.00 0.00 0.00 34 1006.1
20260504231741 71 298 2.0 7.0 0.00 0.00 0.00 33 1006.1
20260504231241 71 260 2.0 7.0 0.00 0.00 0.00 34 1006.0
20260504230741 71 295 2.0 7.0 0.00 0.00 0.00 33 1005.9
20260504230503 72 250 2.0 7.0 0.00 0.00 0.00 33 1005.9
20260504225741 72 297 3.0 7.0 0.00 0.00 0.00 32 1005.9
20260504225241 72 331 2.0 7.0 0.00 0.00 0.00 32 1005.9
20260504224741 73 323 2.0 7.0 0.00 0.00 0.00 31 1005.7
20260504224243 73 306 2.0 7.0 0.00 0.00 0.00 32 1005.7
20260504223741 73 266 1.0 9.0 0.00 0.00 0.00 32 1005.5
20260504223240 73 283 2.0 9.0 0.00 0.00 0.00 31 1005.5
20260504222740 73 297 2.0 9.0 0.00 0.00 0.00 31 1005.5
20260504222253 72 288 3.0 9.0 0.00 0.00 0.00 32 1005.5
20260504221741 72 254 3.0 9.0 0.00 0.00 0.00 31 1005.7
20260504221510 73 279 3.0 12.0 0.00 0.00 0.00 32 1005.7
20260504220742 73 199 3.0 12.0 0.00 0.00 0.00 31 1005.6
20260504220241 73 237 3.0 8.0 0.00 0.00 0.00 31 1005.7
20260504215741 73 283 4.0 10.0 0.00 0.00 0.00 30 1005.7
20260504215241 73 276 3.0 10.0 0.00 0.00 0.00 30 1005.6
20260504214741 73 264 3.0 10.0 0.00 0.00 0.00 30 1005.5
20260504214518 74 37 3.0 10.0 0.00 0.00 0.00 30 1005.4
20260504213741 74 70 3.0 10.0 0.00 0.00 0.00 31 1005.5
20260504213239 73 289 3.0 10.0 0.00 0.00 0.00 30 1005.5
20260504212739 74 256 3.0 10.0 0.00 0.00 0.00 31 1005.6
20260504212237 73 317 3.0 7.0 0.00 0.00 0.00 31 1005.7
20260504211737 74 255 3.0 11.0 0.00 0.00 0.00 30 1005.7
20260504211250 74 326 3.0 14.0 0.00 0.00 0.00 29 1005.7
20260504210737 74 262 3.0 14.0 0.00 0.00 0.00 29 1005.5
20260504210238 74 324 4.0 14.0 0.00 0.00 0.00 30 1005.5
20260504205736 74 311 5.0 14.0 0.00 0.00 0.00 29 1005.4
20260504205236 74 323 4.0 11.0 0.00 0.00 0.00 29 1005.5
20260504204737 74 349 4.0 11.0 0.00 0.00 0.00 30 1005.6
20260504204453 74 229 4.0 11.0 0.00 0.00 0.00 29 1005.4
20260504204002 74 240 4.0 11.0 0.00 0.00 0.00 29 1005.5
20260504203456 75 300 3.0 13.0 0.00 0.00 0.00 28 1005.5
20260504202735 76 271 3.0 13.0 0.00 0.00 0.00 29 1005.5
20260504202235 75 295 3.0 13.0 0.00 0.00 0.00 28 1005.6
20260504201735 75 245 4.0 13.0 0.00 0.00 0.00 29 1005.6
20260504201235 75 251 3.0 9.0 0.00 0.00 0.00 28 1005.6
20260504200735 74 158 4.0 14.0 0.00 0.00 0.00 29 1005.5
20260504200235 75 288 4.0 14.0 0.00 0.00 0.00 28 1005.7
20260504195734 74 270 4.0 14.0 0.00 0.00 0.00 28 1005.5
20260504195504 75 98 5.0 14.0 0.00 0.00 0.00 28 1005.7
20260504194734 75 297 5.0 13.0 0.00 0.00 0.00 28 1005.6
20260504194233 74 255 5.0 13.0 0.00 0.00 0.00 28 1005.7
20260504193733 74 311 4.0 13.0 0.00 0.00 0.00 29 1005.7
20260504193233 74 207 4.0 13.0 0.00 0.00 0.00 28 1005.7
20260504193002 74 293 5.0 13.0 0.00 0.00 0.00 27 1005.8
20260504192232 74 266 5.0 14.0 0.00 0.00 0.00 28 1005.7
20260504191733 74 241 5.0 14.0 0.00 0.00 0.00 28 1005.7
20260504191232 74 310 4.0 14.0 0.00 0.00 0.00 28 1005.8
20260504190732 74 301 4.0 13.0 0.00 0.00 0.00 27 1005.9
20260504190232 74 83 5.0 13.0 0.00 0.00 0.00 29 1005.9
20260504190222 74 279 4.0 13.0 0.00 0.00 0.00 29 1005.9
20260504185233 74 286 5.0 13.0 0.00 0.00 0.00 29 1005.9
20260504184732 74 255 5.0 14.0 0.00 0.00 0.00 29 1006.0
20260504184231 73 276 5.0 14.0 0.00 0.00 0.00 28 1006.0
20260504183732 73 240 5.0 12.0 0.00 0.00 0.00 30 1005.9
20260504183450 73 249 5.0 20.0 0.00 0.00 0.00 30 1006.0
20260504182952 73 291 5.0 20.0 0.00 0.00 0.00 30 1006.0
20260504182449 73 271 6.0 20.0 0.00 0.00 0.00 29 1006.1
20260504181730 72 254 7.0 20.0 0.00 0.00 0.00 29 1006.1
20260504181230 72 304 5.0 15.0 0.00 0.00 0.00 30 1006.1
20260504180730 72 200 3.0 12.0 0.00 0.00 0.00 30 1006.2
20260504180230 72 254 5.0 12.0 0.00 0.00 0.00 31 1006.2
20260504175743 71 75 5.0 12.0 0.00 0.00 0.00 30 1006.3
20260504175229 72 274 5.0 19.0 0.00 0.00 0.00 31 1006.2
20260504174948 71 273 5.0 19.0 0.00 0.00 0.00 31 1006.3
20260504174229 71 257 5.0 19.0 0.00 0.00 0.00 31 1006.3
20260504173729 71 293 6.0 19.0 0.00 0.00 0.00 31 1006.5
20260504173451 71 274 5.0 16.0 0.00 0.00 0.00 30 1006.4
20260504172729 71 256 5.0 14.0 0.00 0.00 0.00 30 1006.5
20260504172459 71 289 5.0 14.0 0.00 0.00 0.00 31 1006.6
20260504171730 71 180 5.0 14.0 0.00 0.00 0.00 32 1006.5
20260504171230 71 210 6.0 19.0 0.00 0.00 0.00 31 1006.6
20260504170949 71 287 5.0 19.0 0.00 0.00 0.00 31 1006.6
20260504170230 71 237 6.0 19.0 0.00 0.00 0.00 33 1006.5
20260504160225 69 279 5.0 16.0 0.00 0.00 0.00 34 1006.9
20260504150724 66 278 4.0 14.0 0.00 0.00 0.00 38 1007.8
20260504150223 66 273 4.0 14.0 0.00 0.00 0.00 38 1007.8
20260504150204 66 337 3.0 12.0 0.00 0.00 0.00 37 1007.9
20260504141222 63 313 3.0 8.0 0.00 0.00 0.00 43 1008.6
20260504140722 63 272 3.0 8.0 0.00 0.00 0.00 42 1008.6
20260504140235 63 140 2.0 14.0 0.00 0.00 0.00 43 1008.7
20260504130720 59 359 2.0 10.0 0.00 0.00 0.00 47 1009.5
20260504130220 58 270 3.0 10.0 0.00 0.00 0.00 48 1009.5
20260504120214 52 262 2.0 6.0 0.00 0.00 0.00 57 1010.2
20260504110710 49 315 1.0 7.0 0.00 0.00 0.00 58 1010.6
20260504110210 49 268 1.0 7.0 0.00 0.00 0.00 58 1010.7
20260504100208 46 255 0.0 5.0 0.00 0.00 0.00 60 1010.4
20260504081706 46 304 0.0 6.0 0.00 0.00 0.00 60 1010.2
20260504081205 46 290 1.0 6.0 0.00 0.00 0.00 60 1010.1
20260504080704 46 252 1.0 6.0 0.00 0.00 0.00 60 1010.2
20260504080203 46 262 1.0 6.0 0.00 0.00 0.00 60 1010.1
20260504070205 43 301 0.0 1.0 0.00 0.00 0.00 63 1009.9
20260504060201 40 255 0.0 0.0 0.00 0.00 0.00 66 1009.9
20260504050656 40 255 0.0 0.0 0.00 0.00 0.00 65 1009.7
20260504050154 40 255 0.0 0.0 0.00 0.00 0.00 65 1009.8
20260504045656 40 255 0.0 0.0 0.00 0.00 0.00 65 1009.8
20260504045421 41 255 0.0 0.0 0.00 0.00 0.00 64 1009.8
20260504044655 41 255 0.0 0.0 0.00 0.00 0.00 64 1009.8
20260504044154 42 255 0.0 0.0 0.00 0.00 0.00 63 1009.7
20260504043654 42 255 0.0 0.0 0.00 0.00 0.00 62 1009.8
20260504043154 42 255 0.0 0.0 0.00 0.00 0.00 62 1009.7
20260504042655 42 255 0.0 0.0 0.00 0.00 0.00 62 1009.7
20260504042154 43 255 0.0 1.0 0.00 0.00 0.00 62 1009.6
20260504041654 43 255 0.0 2.0 0.00 0.00 0.00 61 1009.7
20260504041155 43 274 0.0 2.0 0.00 0.00 0.00 61 1009.6
20260504040653 43 262 0.0 2.0 0.00 0.00 0.00 62 1009.6
20260504040155 43 262 0.0 2.0 0.00 0.00 0.00 62 1009.5
20260504035652 43 254 0.0 1.0 0.00 0.00 0.00 61 1009.6
20260504035152 43 260 0.0 3.0 0.00 0.00 0.00 61 1009.5
20260504034653 43 262 1.0 3.0 0.00 0.00 0.00 61 1009.5
20260504034149 43 264 1.0 3.0 0.00 0.00 0.00 60 1009.4
20260504033649 44 263 1.0 3.0 0.00 0.00 0.00 60 1009.4
20260504033151 44 250 0.0 2.0 0.00 0.00 0.00 60 1009.5
20260504032918 44 260 0.0 2.0 0.00 0.00 0.00 60 1009.4
20260504032416 44 266 0.0 2.0 0.00 0.00 0.00 60 1009.4
20260504031649 44 259 0.0 2.0 0.00 0.00 0.00 60 1009.4
20260504031149 44 261 1.0 2.0 0.00 0.00 0.00 60 1009.4
20260504030648 44 264 0.0 2.0 0.00 0.00 0.00 60 1009.4
20260504030406 44 261 1.0 2.0 0.00 0.00 0.00 60 1009.3